Regional Weather Roundup
Issued by NWS Sterling, VA

Home | Current Version | Previous Version | Text Only | Print | Product List | Glossary On
Versions: 1 2 3 4 5 6 7 8 9 10 11 12 13 14 15 16 17 18 19 20 21 22 23 24 25 26 27 28 29 30 31 32 33 34 35 36 37 38 39 40 41 42 43 44 45 46 47 48 49 50
000
ASUS41 KLWX 241010
RWRLWX

REGIONAL WEATHER ROUNDUP
NATIONAL WEATHER SERVICE BALTIMORE MD/WASHINGTON DC
600 AM EDT SUN JUL 24 2016

Note: "FAIR" indicates few or no clouds below 12,000 feet
with no significant weather and/or obstructions to visibility.
 TC=TEMPERATURE CELSIUS

 * =Non NWS site. Station does not report precipitation (e.g. rain,
    snow, etc.), thunder, or fog.

DCZ001-MDZ009-015-VAZ040>042-051-053>054-241100-
WASHINGTON METRO

CITY           SKY/WX    TMP DP  RH WIND       PRES   REMARKS
WASHINGTON NAT FAIR      82  66  58 N9        29.97R
DULLES         FAIR      72  69  90 NW5       29.98R
ANDREWS AFB    CLEAR     74  66  76 N7        29.96R
FT BELVOIR     FAIR      73  71  94 NW1       29.96R
QUANTICO       FAIR      81  72  74 CALM      29.96R
COLLEGE PARK*  FAIR      72  68  88 CALM      29.96S
LEESBURG*      FAIR      73  73 100 CALM      30.00R
MANASSAS*      FAIR      72  72 100 CALM      29.98R
GAITHERSBURG*  CLEAR     72  64  78 CALM      30.03R

$$

MDZ006>007-011-014-241100-
BALTIMORE METRO

CITY           SKY/WX    TMP DP  RH WIND       PRES   REMARKS
BWI AIRPORT    PTCLDY    72  67  84 CALM      29.97R
MD SCIENCE CTR   N/A     81  63  54 MISG      29.97R
MARTIN STATE   PTCLDY    73  70  88 CALM      29.98R
ANNAPOLIS      CLEAR     80  71  74 N5        29.95R
FORT MEADE*    CLEAR     68  64  88 CALM      29.99S

$$

MDZ012-015-019>023-241100-
MARYLAND EASTERN SHORE

CITY           SKY/WX    TMP DP  RH WIND       PRES   REMARKS
OCEAN CITY     PTCLDY    77  74  90 CALM      29.94R
SALISBURY      CLEAR     78  75  90 NE6       29.94R
BAY BRIDGE AP* CLEAR     77  70  78 NE5       29.96R
CAMBRIDGE*     CLEAR     77  72  83 N3        29.94R
EASTON*        CLEAR     76  75  98 NE7       29.98S

$$

MDZ017>025-241100-
SOUTHERN MARYLAND

CITY           SKY/WX    TMP DP  RH WIND       PRES   REMARKS
PATUXENT RIVER CLEAR     79  72  79 W5        29.94R
ST INIGOES     CLEAR     79  76  90 CALM      29.94R
LEONARDTOWN*   CLEAR     75  72  88 CALM      29.96S

$$

MDZ003>005-241100-
NORTH CENTRAL MARYLAND

CITY           SKY/WX    TMP DP  RH WIND       PRES   REMARKS
FREDERICK*     MOCLDY    68  68 100 CALM      30.02R FOG
HAGERSTOWN APT PTCLDY    75  67  76 CALM      30.01R

$$

MDZ501>502-241100-
WESTERN MARYLAND

CITY           SKY/WX    TMP DP  RH WIND       PRES   REMARKS
OAKLAND*       PTCLDY    68  68 100 SW3       30.15R FOG
CUMBERLAND*    PTCLDY    72  70  94 N3        30.07R

$$

VAZ025>031-241100-
SHENANDOAH VALLEY

CITY           SKY/WX    TMP DP  RH WIND       PRES   REMARKS
WINCHESTER*    FAIR      72  70  94 CALM      30.01R
FRONT ROYAL*   FAIR      72  70  94 CALM      30.00S
LURAY*         FAIR     N/A N/A N/A CALM      30.02R HAZE
NEW MARKET*    FAIR     N/A N/A N/A CALM      30.01S
STAUNTON*      FAIR      67  67  99 CALM      30.06S FOG
WAYNESBORO*    FAIR      68  67  96 CALM      30.06R

$$

WVZ021-048>050-054>055-241100-
EASTERN WEST VIRGINIA PANHANDLE

CITY           SKY/WX    TMP DP  RH WIND       PRES   REMARKS
MARTINSBURG    FAIR      70  68  93 CALM      30.00R
PETERSBURG*    FAIR      68  67  98 CALM      30.04R FOG

$$

VAZ036>039-050-241100-
CENTRAL FOOTHILLS

CITY           SKY/WX    TMP DP  RH WIND       PRES   REMARKS
CHARLOTTESVILL FAIR      74  71  91 CALM      29.99R
CULPEPER*      FAIR      73  73  97 CALM      29.99R
ORANGE*          N/A     73  73 100 CALM      30.00R
GORDONSVILLE*  FAIR      72  72 100 CALM      29.97S
WARRENTON*     FOG       71  66  85 CALM      29.97S VSB 1/4

$$

VAZ055>057-241100-
NORTH AND CENTRAL PIEDMONT

CITY           SKY/WX    TMP DP  RH WIND       PRES   REMARKS
FREDERICKSBRG* FAIR      76  76 100 CALM      29.96R
STAFFORD*      FAIR      72  70  93 N3        30.01R FOG

$$

NCZ024-NYZ072-PAZ021-071-VAZ022-071-241100-
OTHER REGIONAL OBSERVATIONS

CITY           SKY/WX    TMP DP  RH WIND       PRES   REMARKS
NEW YORK CITY  CLEAR     76  59  55 NE5       29.99R
PHILADELPHIA   MOCLDY    75  64  68 NW3       29.97R
PITTSBURGH     PTCLDY    69  65  86 CALM      30.03S
ROANOKE        FAIR      72  68  87 CALM      30.06R
RICHMOND       FAIR      76  74  93 S6        29.96R
RALEIGH        PTCLDY    75  72  90 SW3       30.01R

$$

ANZ530>537-241100-
MARINE OBSERVATIONS

STATION/POSITION TIME  TEMP    WIND        PRES
                       AIR SEA DIR/SP/G
                 (UTC) (F)     (DEG/KT/KT) (MB)
THOMAS PT LIGHT  1000   81 81   30/ 11/ 13 1015.4R
BALT KEY BRIDGE  0948   79      20/  4/  5 1014.6R
COVE POINT       0948   83      20/ 11/ 15 1014.3R
LEWISETTA        0948   81 86  290/  3/  4 1013.6R
SOLOMONS ISLAND  0948   81 85  320/  4/  6   N/A
PINEY POINT      0948          320/  6/  7   N/A

$$




USA.gov is the U.S. government's official web portal to all federal, state and local government web resources and services.